STARLINK-11371, 62879

Orbit data source: Space-Track

STARLINK-11371, 62879 is a payload satellite owned by SpaceX/Seattle (US) in LEO that was launched on Tue, 04 Feb 2025 UTC via an FALCON 9 launch vehicle from the Air Force Eastern Test Range (AFETR). Payload-class satellites include a variety of spacecraft equipped with specific instruments for various scientific and technological missions. These include communications satellites like Starlink; space stations such as the ISS; scientific satellites like the Hubble; Earth observation satellites from companies like Planet Labs, Umbra, and HawkEye 360; GPS; miniature CubeSats for education and research; and military/defense satellites.

Loading next visibility...
Identifier
62879, 2025-024A
Orbit
LEO
Country
Flag of USUS
Related business
Manufacturer
SpaceX/Seattle
Mission
Operational Commercial Communications
Bus & Motor
STARLINK V2MD, Unknown motor
Mass
960 kg wet, ~910 kg dry
Launch date (UTC)
2025-02-04 (11 months ago)
Launch vehicle
FALCON 9
Launch site
Air Force Eastern Test Range (AFETR)
Object type
Payload
Rocket body
Debris
Shape & HBR
Box + 2 Pan, 18.1 m
Radar Cross Section
36.964 m², Large (>1 m²)

Expand to show TLE details & history
Last TLE update: 7 hours ago

TLE from 7 hours ago
0 STARLINK-11371
1 62879U 25024A   25355.16658141  .00175899  00000-0  13361-2 0  9992
2 62879  43.0005 295.0660 0006090 236.4197 123.6090 15.70988920 51119
Epoch: 2025-12-21T03:59Z
TLE epoch observation values (Epoch: 2025-12-21T03:59:52.633Z)
Latitude
-0.00001°
Longitude
145.11376°
Altitude
358.112 km
Speed
7.695 km/s
True Right ascension
19h 40m 15s
True Declination
0° 00' 00"
Sunlit
Object was in daylight at epoch
Visualization orbit readout
Latitude
Unknown
Longitude
Unknown
Altitude
Unknown
Speed
Unknown
Apparent Right ascension
Unknown
Apparent Declination
Unknown
Sunlit
N/A
Visualization observer readout
Local Sidereal Time
10:09:55
Azimuth
Unknown
Elevation
Unknown
Doppler factor
Unknown
Orbital elements
Apogee altitude
362.153 km
Perigee altitude
353.949 km
Semi-major axis
6,736.188 km
Eccentricity
0.00061
Inclination
43.0005°
RAAN
295.066°
Arg. of periapsis
236.4197°
True anomaly
123.6671°
Mean anomaly
123.609°
Eccentric anomaly
123.63805°
Mean motion
3.92574 °/min
Orbital period
91.7 mins
BSTAR
0.0013361
Loading maneuver chart data...
Computing Atmospheric mass density...
Loading historical data...
Loading historical data...
Loading historical data...
Loading historical data...
Loading historical data...
Loading historical data...
Loading historical data...

Documentation

Showing up to 5 results
|